QPF
0.01 0.02 0.02 0.01 0.01 0.00 0.01 0.01 0.01 0.00 0.01 0.01 0.01 0.01 0.01 0.01 0.01 0.01 0.01 0.00 0.00 0.01 0.01 0.02 0.02 0.03 0.03 0.03 0.04 0.04 0.06 0.06 0.06 0.05 0.05 0.04 0.04 0.04 0.04 0.05 0.06 0.09 0.11 0.09
0.02 0.01 0.01 0.00 0.00 0.00 0.00 0.00 0.00 0.00 0.00 0.01 0.01 0.01 0.01 0.01 0.01 0.01 0.01 0.01 0.00 0.00 0.01 0.01 0.01 0.02 0.03 0.02 0.02 0.04 0.05 0.05 0.05 0.05 0.04 0.04 0.03 0.03 0.04 0.04 0.05 0.07 0.08 0.07
0.01 0.00 0.00 0.00 0.01 0.01 0.01 0.00 0.00 0.00 0.00 0.01 0.01 0.01 0.01 0.01 0.01 0.01 0.01 0.01 0.01 0.01 0.01 0.01 0.01 0.01 0.02 0.02 0.02 0.03 0.04 0.05 0.05 0.05 0.04 0.03 0.03 0.04 0.05 0.06 0.06 0.06 0.07 0.07
0.01 0.00 0.00 0.00 0.00 0.01 0.01 0.00 0.00 0.00 0.00 0.01 0.01 0.02 0.01 0.01 0.01 0.01 0.01 0.01 0.01 0.01 0.01 0.01 0.01 0.01 0.02 0.02 0.02 0.02 0.03 0.04 0.05 0.05 0.04 0.04 0.03 0.03 0.03 0.04 0.05 0.06 0.07 0.08
0.02 0.01 0.01 0.00 0.00 0.00 0.00 0.00 0.01 0.01 0.01 0.01 0.01 0.02 0.01 0.01 0.01 0.02 0.01 0.01 0.01 0.01 0.01 0.01 0.01 0.01 0.02 0.02 0.02 0.01 0.02 0.02 0.02 0.03 0.03 0.04 0.04 0.03 0.03 0.04 0.04 0.05 0.06 0.07
0.01 0.01 0.01 0.00 0.00 0.00 0.00 0.01 0.01 0.01 0.02 0.01 0.01 0.01 0.01 0.01 0.01 0.02 0.01 0.01 0.01 0.01 0.01 0.01 0.01 0.02 0.02 0.01 0.01 0.01 0.01 0.02 0.02 0.02 0.02 0.02 0.02 0.02 0.03 0.04 0.04 0.04 0.04 0.06
0.01 0.01 0.01 0.00 0.00 0.01 0.01 0.01 0.02 0.03 0.03 0.02 0.00 0.01 0.01 0.01 0.01 0.02 0.01 0.01 0.01 0.00 0.01 0.01 0.01 0.01 0.01 0.01 0.01 0.01 0.01 0.01 0.01 0.01 0.01 0.01 0.01 0.01 0.02 0.02 0.03 0.04 0.04 0.04
0.01 0.01 0.01 0.01 0.01 0.01 0.01 0.01 0.02 0.01 0.01 0.01 0.00 0.00 0.01 0.01 0.02 0.02 0.02 0.01 0.01 0.00 0.00 0.00 0.01 0.01 0.01 0.01 0.01 0.01 0.00 0.01 0.01 0.01 0.01 0.01 0.01 0.01 0.01 0.02 0.02 0.03 0.03 0.03
0.01 0.01 0.01 0.00 0.01 0.01 0.01 0.01 0.01 0.01 0.01 0.00 0.00 0.00 0.01 0.01 0.02 0.02 0.02 0.01 0.01 0.00 0.00 0.00 0.00 0.01 0.01 0.01 0.01 0.01 0.00 0.00 0.00 0.01 0.01 0.01 0.01 0.01 0.01 0.01 0.01 0.02 0.02 0.03
0.01 0.01 0.00 0.00 0.00 0.01 0.01 0.00 0.01 0.02 0.02 0.01 0.00 0.00 0.00 0.01 0.01 0.02 0.01 0.01 0.00 0.00 0.00 0.00 0.00 0.00 0.00 0.01 0.01 0.01 0.00 0.00 0.01 0.01 0.01 0.01 0.01 0.01 0.01 0.01 0.01 0.01 0.01 0.02
0.01 0.02 0.01 0.01 0.00 0.00 0.00 0.01 0.01 0.02 0.02 0.01 0.01 0.00 0.00 0.00 0.01 0.01 0.01 0.01 0.00 0.00 0.00 0.00 0.00 0.00 0.00 0.00 0.01 0.01 0.01 0.01 0.01 0.01 0.00 0.00 0.00 0.00 0.01 0.01 0.01 0.01 0.01 0.01
0.01 0.03 0.02 0.01 0.00 0.00 0.00 0.01 0.01 0.03 0.02 0.01 0.01 0.00 0.00 0.00 0.00 0.00 0.01 0.01 0.00 0.00 0.00 0.00 0.00 0.00 0.00 0.00 0.01 0.01 0.01 0.00 0.00 0.00 0.00 0.00 0.00 0.00 0.01 0.01 0.01 0.01 0.01 0.01
0.04 0.05 0.03 0.02 0.02 0.01 0.01 0.01 0.01 0.02 0.02 0.01 0.01 0.01 0.00 0.00 0.00 0.00 0.00 0.00 0.00 0.00 0.00 0.00 0.00 0.00 0.00 0.00 0.00 0.00 0.00 0.00 0.00 0.00 0.00 0.00 0.00 0.00 0.01 0.01 0.01 0.01 0.01 0.01
0.05 0.05 0.02 0.01 0.01 0.01 0.01 0.01 0.01 0.02 0.03 0.01 0.00 0.00 0.00 0.00 0.00 0.00 0.00 0.00 0.00 0.00 0.00 0.00 0.00 0.00 0.00 0.00 0.00 0.00 0.00 0.00 0.00 0.00 0.00 0.00 0.00 0.00 0.00 0.01 0.01 0.01 0.01 0.01
0.04 0.05 0.02 0.01 0.01 0.01 0.01 0.00 0.00 0.01 0.01 0.01 0.00 0.00 0.00 0.00 0.00 0.00 0.00 0.00 0.00 0.00 0.00 0.00 0.01 0.01 0.00 0.00 0.00 0.00 0.00 0.00 0.00 0.01 0.01 0.01 0.01 0.01 0.01 0.01 0.01 0.01 0.01 0.01
0.04 0.04 0.02 0.01 0.01 0.01 0.01 0.00 0.00 0.00 0.00 0.00 0.00 0.01 0.01 0.00 0.00 0.00 0.00 0.00 0.00 0.00 0.00 0.01 0.01 0.00 0.00 0.00 0.00 0.00 0.00 0.00 0.00 0.00 0.00 0.01 0.01 0.01 0.01 0.01 0.01 0.02 0.02 0.02
0.02 0.03 0.04 0.02 0.01 0.01 0.01 0.00 0.00 0.00 0.00 0.00 0.01 0.01 0.00 0.00 0.00 0.00 0.00 0.00 0.00 0.00 0.00 0.00 0.00 0.00 0.00 0.00 0.00 0.00 0.00 0.00 0.00 0.00 0.00 0.00 0.01 0.01 0.02 0.02 0.02 0.02 0.02 0.02
0.02 0.03 0.05 0.04 0.03 0.03 0.01 0.00 0.00 0.00 0.00 0.01 0.01 0.00 0.00 0.00 0.00 0.00 0.00 0.00 0.00 0.00 0.00 0.00 0.00 0.00 0.00 0.00 0.00 0.00 0.00 0.00 0.00 0.00 0.00 0.00 0.00 0.01 0.01 0.01 0.02 0.02 0.02 0.02
0.02 0.04 0.07 0.06 0.04 0.02 0.00 0.00 0.00 0.01 0.01 0.01 0.01 0.00 0.00 0.00 0.00 0.00 0.00 0.00 0.00 0.00 0.01 0.00 0.00 0.00 0.00 0.00 0.00 0.00 0.00 0.00 0.00 0.00 0.00 0.00 0.00 0.00 0.01 0.01 0.01 0.01 0.01 0.01
0.04 0.05 0.08 0.06 0.04 0.02 0.00 0.00 0.00 0.01 0.01 0.01 0.01 0.00 0.00 0.00 0.01 0.01 0.00 0.00 0.00 0.01 0.00 0.00 0.00 0.00 0.00 0.00 0.00 0.00 0.00 0.00 0.00 0.00 0.00 0.00 0.00 0.00 0.00 0.00 0.01 0.01 0.01 0.01
0.05 0.09 0.10 0.07 0.04 0.01 0.00 0.00 0.01 0.02 0.01 0.01 0.01 0.00 0.00 0.01 0.01 0.01 0.01 0.01 0.01 0.00 0.00 0.00 0.00 0.00 0.00 0.00 0.00 0.00 0.00 0.00 0.00 0.00 0.00 0.00 0.00 0.00 0.00 0.00 0.01 0.01 0.01 0.01
0.02 0.04 0.05 0.05 0.05 0.02 0.01 0.01 0.01 0.01 0.01 0.01 0.01 0.01 0.01 0.01 0.01 0.01 0.01 0.01 0.01 0.00 0.00 0.00 0.00 0.00 0.00 0.01 0.00 0.00 0.01 0.01 0.01 0.00 0.00 0.00 0.00 0.00 0.00 0.00 0.01 0.01 0.01 0.01
0.01 0.02 0.02 0.03 0.03 0.02 0.01 0.01 0.01 0.01 0.01 0.01 0.01 0.01 0.01 0.01 0.01 0.01 0.01 0.01 0.01 0.00 0.00 0.01 0.00 0.00 0.00 0.01 0.00 0.00 0.00 0.01 0.01 0.00 0.00 0.00 0.00 0.00 0.00 0.01 0.01 0.01 0.01 0.01
0.01 0.01 0.02 0.02 0.02 0.01 0.01 0.01 0.01 0.01 0.01 0.01 0.01 0.01 0.01 0.01 0.01 0.01 0.01 0.01 0.01 0.01 0.01 0.01 0.01 0.01 0.01 0.01 0.00 0.01 0.00 0.00 0.00 0.00 0.00 0.00 0.00 0.00 0.00 0.01 0.01 0.01 0.01 0.01
0.01 0.01 0.01 0.02 0.01 0.01 0.01 0.01 0.01 0.01 0.01 0.01 0.01 0.01 0.01 0.01 0.01 0.01 0.01 0.01 0.01 0.01 0.01 0.01 0.01 0.01 0.01 0.01 0.00 0.00 0.00 0.00 0.00 0.00 0.00 0.00 0.00 0.00 0.01 0.01 0.01 0.01 0.01 0.01
0.01 0.01 0.01 0.01 0.01 0.01 0.01 0.01 0.01 0.01 0.01 0.01 0.00 0.00 0.01 0.01 0.01 0.01 0.01 0.01 0.01 0.01 0.01 0.01 0.01 0.01 0.01 0.01 0.00 0.00 0.00 0.00 0.00 0.00 0.00 0.00 0.00 0.00 0.01 0.01 0.01 0.01 0.02 0.02
MSLP
1019.42 1019.62 1019.85 1020.12 1020.47 1020.91 1021.45 1022.09 1022.82 1023.60 1024.39 1025.18 1025.90 1026.55 1027.10 1027.53 1027.83 1028.02 1028.10 1028.07 1027.94 1027.73 1027.43 1027.08 1026.69 1026.26 1025.83 1025.41 1025.02 1024.67 1024.39 1024.17 1024.02 1023.94 1023.91 1023.92 1023.94 1023.97 1023.96 1023.93 1023.86 1023.75 1023.64 1023.53
1019.90 1020.09 1020.29 1020.54 1020.87 1021.30 1021.86 1022.53 1023.29 1024.12 1024.95 1025.76 1026.50 1027.14 1027.67 1028.07 1028.37 1028.56 1028.66 1028.69 1028.64 1028.53 1028.35 1028.11 1027.81 1027.46 1027.07 1026.67 1026.27 1025.90 1025.59 1025.33 1025.14 1025.02 1024.96 1024.94 1024.93 1024.90 1024.86 1024.77 1024.64 1024.47 1024.29 1024.11
1020.43 1020.61 1020.79 1021.01 1021.31 1021.73 1022.28 1022.95 1023.73 1024.56 1025.41 1026.22 1026.94 1027.57 1028.07 1028.47 1028.76 1028.98 1029.14 1029.25 1029.31 1029.32 1029.28 1029.16 1028.97 1028.71 1028.38 1028.01 1027.62 1027.24 1026.90 1026.61 1026.39 1026.24 1026.14 1026.08 1026.04 1025.98 1025.90 1025.77 1025.60 1025.39 1025.15 1024.91
1021.05 1021.21 1021.37 1021.56 1021.83 1022.21 1022.73 1023.38 1024.14 1024.95 1025.77 1026.54 1027.24 1027.83 1028.32 1028.71 1029.02 1029.29 1029.53 1029.74 1029.93 1030.08 1030.17 1030.19 1030.11 1029.94 1029.68 1029.35 1028.97 1028.58 1028.22 1027.91 1027.65 1027.46 1027.34 1027.25 1027.17 1027.09 1026.99 1026.84 1026.65 1026.41 1026.13 1025.84
1021.75 1021.90 1022.03 1022.18 1022.42 1022.76 1023.23 1023.83 1024.53 1025.28 1026.04 1026.76 1027.40 1027.96 1028.43 1028.82 1029.18 1029.50 1029.83 1030.16 1030.48 1030.77 1031.00 1031.14 1031.18 1031.09 1030.90 1030.60 1030.25 1029.86 1029.48 1029.14 1028.86 1028.63 1028.46 1028.34 1028.24 1028.14 1028.02 1027.87 1027.67 1027.43 1027.14 1026.81
1022.50 1022.64 1022.75 1022.88 1023.07 1023.36 1023.77 1024.30 1024.92 1025.59 1026.26 1026.90 1027.49 1028.01 1028.46 1028.87 1029.27 1029.67 1030.09 1030.53 1030.97 1031.38 1031.74 1031.99 1032.12 1032.11 1031.98 1031.73 1031.39 1031.02 1030.63 1030.27 1029.95 1029.69 1029.49 1029.33 1029.21 1029.09 1028.96 1028.81 1028.62 1028.38 1028.10 1027.76
1023.25 1023.38 1023.49 1023.59 1023.75 1023.99 1024.33 1024.77 1025.30 1025.86 1026.45 1027.01 1027.53 1028.02 1028.46 1028.90 1029.35 1029.83 1030.34 1030.88 1031.42 1031.94 1032.38 1032.72 1032.92 1032.98 1032.90 1032.69 1032.39 1032.03 1031.64 1031.27 1030.93 1030.64 1030.40 1030.21 1030.06 1029.92 1029.79 1029.64 1029.46 1029.24 1028.97 1028.64
1023.93 1024.07 1024.17 1024.27 1024.40 1024.60 1024.87 1025.23 1025.66 1026.13 1026.61 1027.10 1027.57 1028.04 1028.50 1028.97 1029.48 1030.03 1030.62 1031.24 1031.86 1032.44 1032.94 1033.33 1033.59 1033.69 1033.66 1033.49 1033.22 1032.89 1032.52 1032.15 1031.80 1031.49 1031.23 1031.00 1030.82 1030.66 1030.52 1030.38 1030.21 1030.01 1029.75 1029.44
1024.48 1024.65 1024.77 1024.88 1025.00 1025.16 1025.38 1025.65 1025.99 1026.36 1026.77 1027.19 1027.63 1028.09 1028.57 1029.10 1029.67 1030.29 1030.95 1031.62 1032.28 1032.90 1033.42 1033.84 1034.11 1034.25 1034.25 1034.13 1033.91 1033.62 1033.29 1032.94 1032.60 1032.28 1031.99 1031.75 1031.54 1031.36 1031.20 1031.05 1030.89 1030.70 1030.46 1030.17
1024.89 1025.10 1025.27 1025.40 1025.53 1025.67 1025.83 1026.04 1026.29 1026.58 1026.91 1027.28 1027.70 1028.17 1028.70 1029.28 1029.92 1030.61 1031.32 1032.02 1032.70 1033.31 1033.83 1034.24 1034.52 1034.67 1034.70 1034.62 1034.46 1034.23 1033.95 1033.65 1033.33 1033.02 1032.73 1032.47 1032.23 1032.03 1031.86 1031.69 1031.53 1031.35 1031.12 1030.85
1025.20 1025.47 1025.69 1025.87 1026.02 1026.14 1026.27 1026.40 1026.56 1026.77 1027.03 1027.36 1027.77 1028.26 1028.83 1029.48 1030.19 1030.93 1031.68 1032.41 1033.08 1033.67 1034.16 1034.54 1034.81 1034.97 1035.03 1035.00 1034.90 1034.74 1034.53 1034.28 1034.01 1033.73 1033.44 1033.17 1032.92 1032.70 1032.50 1032.33 1032.16 1031.97 1031.76 1031.50
1025.49 1025.85 1026.14 1026.37 1026.54 1026.65 1026.71 1026.77 1026.84 1026.95 1027.14 1027.42 1027.81 1028.32 1028.94 1029.65 1030.42 1031.22 1032.00 1032.73 1033.39 1033.95 1034.41 1034.75 1035.00 1035.16 1035.25 1035.27 1035.24 1035.16 1035.03 1034.85 1034.63 1034.38 1034.11 1033.84 1033.58 1033.34 1033.13 1032.94 1032.77 1032.59 1032.38 1032.13
1025.90 1026.34 1026.71 1026.98 1027.16 1027.23 1027.23 1027.19 1027.15 1027.15 1027.24 1027.46 1027.83 1028.34 1028.99 1029.76 1030.58 1031.42 1032.23 1032.97 1033.61 1034.14 1034.56 1034.88 1035.12 1035.29 1035.41 1035.48 1035.52 1035.51 1035.46 1035.35 1035.18 1034.97 1034.72 1034.46 1034.19 1033.95 1033.73 1033.54 1033.36 1033.19 1032.99 1032.76
1026.54 1027.06 1027.48 1027.78 1027.94 1027.96 1027.87 1027.70 1027.52 1027.39 1027.37 1027.50 1027.82 1028.32 1028.99 1029.78 1030.65 1031.52 1032.35 1033.10 1033.73 1034.24 1034.64 1034.94 1035.17 1035.36 1035.52 1035.65 1035.75 1035.82 1035.83 1035.78 1035.66 1035.48 1035.25 1034.99 1034.72 1034.48 1034.26 1034.08 1033.92 1033.76 1033.59 1033.39
1027.49 1028.06 1028.52 1028.81 1028.92 1028.85 1028.63 1028.32 1027.98 1027.70 1027.54 1027.58 1027.82 1028.29 1028.94 1029.75 1030.64 1031.53 1032.38 1033.13 1033.76 1034.27 1034.66 1034.96 1035.20 1035.41 1035.61 1035.79 1035.95 1036.08 1036.15 1036.14 1036.05 1035.89 1035.67 1035.42 1035.16 1034.92 1034.72 1034.56 1034.42 1034.30 1034.17 1034.00
1028.74 1029.33 1029.78 1030.03 1030.06 1029.87 1029.50 1029.02 1028.52 1028.08 1027.79 1027.70 1027.87 1028.28 1028.91 1029.71 1030.59 1031.50 1032.35 1033.10 1033.74 1034.24 1034.63 1034.95 1035.21 1035.46 1035.70 1035.93 1036.14 1036.31 1036.42 1036.44 1036.37 1036.22 1036.00 1035.75 1035.50 1035.27 1035.10 1034.97 1034.88 1034.80 1034.73 1034.61
1030.21 1030.78 1031.17 1031.34 1031.25 1030.93 1030.41 1029.77 1029.11 1028.52 1028.10 1027.91 1027.99 1028.34 1028.93 1029.70 1030.57 1031.46 1032.30 1033.05 1033.68 1034.18 1034.59 1034.92 1035.21 1035.49 1035.77 1036.04 1036.30 1036.50 1036.63 1036.67 1036.61 1036.46 1036.24 1035.99 1035.75 1035.54 1035.39 1035.31 1035.27 1035.26 1035.25 1035.20
1031.72 1032.23 1032.53 1032.58 1032.37 1031.91 1031.25 1030.47 1029.68 1028.98 1028.46 1028.19 1028.20 1028.50 1029.04 1029.77 1030.61 1031.46 1032.28 1033.01 1033.62 1034.12 1034.53 1034.87 1035.19 1035.50 1035.81 1036.12 1036.40 1036.63 1036.78 1036.82 1036.76 1036.62 1036.40 1036.16 1035.93 1035.74 1035.63 1035.59 1035.61 1035.67 1035.73 1035.75
1033.08 1033.49 1033.66 1033.58 1033.24 1032.65 1031.88 1031.01 1030.15 1029.39 1028.82 1028.51 1028.49 1028.75 1029.26 1029.94 1030.73 1031.54 1032.30 1032.98 1033.56 1034.04 1034.44 1034.78 1035.11 1035.44 1035.78 1036.11 1036.41 1036.66 1036.82 1036.88 1036.83 1036.69 1036.49 1036.26 1036.06 1035.90 1035.83 1035.84 1035.91 1036.03 1036.15 1036.23
1034.09 1034.36 1034.40 1034.19 1033.73 1033.05 1032.22 1031.32 1030.44 1029.68 1029.13 1028.84 1028.82 1029.07 1029.54 1030.19 1030.91 1031.66 1032.35 1032.97 1033.49 1033.93 1034.30 1034.63 1034.95 1035.28 1035.63 1035.97 1036.29 1036.56 1036.74 1036.82 1036.79 1036.68 1036.51 1036.32 1036.14 1036.03 1035.99 1036.04 1036.16 1036.32 1036.49 1036.63
1034.61 1034.74 1034.65 1034.32 1033.77 1033.04 1032.20 1031.32 1030.50 1029.81 1029.33 1029.10 1029.13 1029.39 1029.86 1030.46 1031.13 1031.79 1032.41 1032.95 1033.39 1033.77 1034.09 1034.38 1034.69 1035.01 1035.35 1035.70 1036.03 1036.31 1036.52 1036.63 1036.65 1036.58 1036.46 1036.32 1036.20 1036.13 1036.13 1036.21 1036.36 1036.55 1036.74 1036.90
1034.59 1034.58 1034.37 1033.95 1033.35 1032.62 1031.82 1031.02 1030.31 1029.75 1029.39 1029.26 1029.36 1029.67 1030.14 1030.71 1031.32 1031.91 1032.44 1032.89 1033.26 1033.56 1033.82 1034.07 1034.34 1034.64 1034.96 1035.31 1035.64 1035.94 1036.18 1036.33 1036.40 1036.40 1036.35 1036.27 1036.21 1036.19 1036.23 1036.34 1036.50 1036.69 1036.88 1037.05
1034.08 1033.95 1033.64 1033.16 1032.55 1031.86 1031.15 1030.48 1029.92 1029.52 1029.31 1029.31 1029.51 1029.88 1030.37 1030.92 1031.48 1032.00 1032.45 1032.82 1033.12 1033.35 1033.55 1033.75 1033.97 1034.23 1034.53 1034.85 1035.18 1035.49 1035.75 1035.95 1036.08 1036.15 1036.17 1036.17 1036.18 1036.21 1036.28 1036.40 1036.56 1036.73 1036.90 1037.04
1033.19 1032.97 1032.59 1032.09 1031.51 1030.90 1030.30 1029.79 1029.41 1029.19 1029.15 1029.29 1029.59 1030.02 1030.54 1031.08 1031.61 1032.08 1032.47 1032.78 1033.01 1033.19 1033.33 1033.48 1033.66 1033.88 1034.14 1034.43 1034.73 1035.03 1035.30 1035.53 1035.71 1035.84 1035.94 1036.01 1036.08 1036.16 1036.26 1036.38 1036.52 1036.67 1036.80 1036.90
1032.09 1031.81 1031.40 1030.91 1030.39 1029.88 1029.43 1029.10 1028.90 1028.86 1028.98 1029.26 1029.66 1030.16 1030.70 1031.25 1031.76 1032.20 1032.56 1032.83 1033.02 1033.17 1033.28 1033.39 1033.52 1033.69 1033.89 1034.13 1034.39 1034.65 1034.90 1035.14 1035.34 1035.51 1035.65 1035.78 1035.90 1036.01 1036.13 1036.26 1036.37 1036.48 1036.56 1036.63
1030.96 1030.63 1030.23 1029.78 1029.35 1028.97 1028.69 1028.52 1028.51 1028.64 1028.92 1029.32 1029.81 1030.37 1030.95 1031.50 1032.01 1032.45 1032.80 1033.06 1033.25 1033.38 1033.47 1033.56 1033.64 1033.75 1033.88 1034.04 1034.22 1034.41 1034.61 1034.80 1034.98 1035.15 1035.31 1035.46 1035.61 1035.74 1035.87 1035.99 1036.08 1036.15 1036.20 1036.22
Thickness
5536 5527 5524 5528 5529 5532 5530 5528 5528 5532 5537 5535 5535 5539 5546 5548 5547 5546 5546 5547 5547 5546 5545 5546 5548 5550 5552 5553 5555 5556 5558 5559 5560 5560 5561 5561 5560 5560 5561 5561 5561 5562 5563 5563
5521 5520 5528 5527 5525 5523 5521 5519 5518 5522 5528 5526 5524 5530 5537 5539 5539 5540 5540 5539 5539 5536 5535 5536 5537 5539 5540 5542 5543 5545 5547 5549 5550 5551 5551 5551 5551 5551 5551 5551 5551 5552 5553 5554
5516 5520 5524 5520 5516 5515 5514 5510 5511 5511 5515 5517 5515 5520 5528 5532 5532 5534 5533 5532 5530 5529 5526 5525 5526 5526 5528 5530 5531 5534 5536 5537 5539 5540 5541 5541 5541 5540 5539 5540 5541 5542 5543 5544
5508 5514 5516 5512 5509 5509 5506 5510 5507 5506 5499 5495 5504 5496 5518 5521 5523 5525 5524 5520 5518 5517 5516 5515 5516 5516 5518 5519 5520 5522 5524 5526 5527 5529 5530 5530 5530 5530 5529 5530 5530 5531 5532 5533
5500 5506 5506 5504 5505 5503 5501 5504 5500 5498 5491 5485 5488 5484 5505 5511 5515 5518 5516 5512 5509 5508 5507 5506 5506 5507 5508 5508 5509 5511 5512 5514 5516 5517 5518 5519 5519 5518 5519 5519 5519 5520 5521 5522
5494 5498 5498 5499 5500 5498 5495 5491 5486 5478 5473 5470 5482 5479 5495 5499 5510 5512 5509 5504 5501 5499 5498 5497 5496 5497 5497 5497 5498 5499 5500 5501 5503 5504 5505 5506 5506 5507 5507 5507 5508 5509 5510 5511
5483 5488 5490 5492 5489 5487 5484 5472 5457 5452 5446 5460 5479 5479 5490 5504 5505 5505 5502 5496 5491 5489 5487 5485 5485 5485 5485 5485 5486 5487 5488 5488 5489 5491 5492 5493 5494 5495 5496 5496 5497 5498 5499 5500
5468 5473 5478 5479 5480 5475 5473 5469 5455 5446 5445 5456 5467 5471 5488 5497 5495 5493 5491 5487 5482 5479 5477 5477 5475 5475 5474 5474 5474 5475 5475 5476 5476 5478 5479 5480 5481 5482 5483 5484 5485 5487 5488 5489
5455 5465 5471 5471 5472 5470 5463 5457 5461 5449 5435 5437 5454 5463 5478 5487 5485 5482 5480 5476 5473 5471 5469 5467 5466 5464 5463 5463 5463 5463 5463 5463 5464 5465 5466 5467 5468 5469 5471 5472 5474 5475 5476 5477
5450 5448 5458 5458 5461 5460 5457 5453 5441 5434 5426 5431 5454 5463 5473 5481 5481 5477 5471 5467 5465 5462 5459 5457 5455 5454 5453 5452 5451 5451 5451 5451 5451 5452 5453 5455 5455 5457 5459 5461 5462 5463 5465 5466
5441 5436 5440 5442 5441 5444 5442 5439 5436 5431 5428 5429 5433 5459 5474 5477 5476 5470 5465 5460 5457 5454 5450 5446 5444 5442 5441 5439 5439 5438 5438 5439 5439 5440 5441 5442 5443 5445 5446 5448 5450 5451 5453 5454
5431 5423 5422 5429 5433 5435 5433 5432 5428 5424 5416 5422 5432 5453 5468 5465 5462 5459 5455 5451 5447 5444 5440 5435 5433 5430 5428 5427 5426 5425 5426 5426 5426 5427 5428 5429 5430 5432 5433 5435 5437 5438 5440 5441
5420 5412 5408 5417 5418 5417 5417 5419 5419 5415 5409 5407 5414 5443 5453 5449 5446 5443 5440 5437 5434 5430 5426 5423 5420 5418 5416 5415 5414 5413 5412 5412 5413 5413 5414 5415 5417 5418 5420 5422 5423 5425 5427 5428
5417 5402 5403 5413 5418 5410 5406 5410 5409 5404 5398 5398 5414 5434 5442 5436 5433 5430 5426 5423 5420 5416 5413 5410 5407 5405 5404 5402 5401 5400 5399 5398 5399 5399 5400 5401 5402 5404 5406 5408 5410 5412 5413 5414
5404 5392 5389 5397 5399 5397 5400 5404 5403 5400 5403 5402 5417 5422 5434 5430 5424 5419 5414 5411 5408 5405 5402 5400 5396 5393 5390 5388 5387 5386 5385 5385 5385 5385 5385 5386 5388 5389 5391 5393 5395 5397 5399 5400
5388 5381 5378 5382 5391 5388 5391 5401 5398 5398 5399 5399 5406 5415 5423 5415 5408 5404 5401 5399 5397 5395 5393 5389 5386 5382 5379 5377 5374 5372 5371 5370 5370 5370 5371 5372 5373 5374 5376 5378 5380 5382 5384 5385
5375 5368 5366 5370 5370 5368 5376 5399 5398 5394 5392 5395 5400 5412 5405 5399 5398 5395 5392 5389 5388 5385 5382 5378 5374 5370 5367 5363 5361 5358 5357 5356 5355 5355 5356 5356 5357 5359 5361 5362 5364 5366 5368 5370
5367 5360 5352 5348 5348 5360 5403 5403 5398 5393 5394 5390 5391 5390 5390 5389 5385 5382 5380 5378 5377 5375 5370 5367 5362 5358 5354 5350 5347 5345 5344 5342 5341 5341 5341 5341 5342 5344 5345 5346 5348 5349 5351 5353
5365 5355 5340 5335 5337 5352 5381 5387 5384 5383 5384 5380 5378 5377 5375 5373 5370 5369 5368 5367 5366 5364 5360 5356 5351 5346 5341 5337 5335 5332 5329 5328 5327 5327 5327 5327 5328 5328 5329 5330 5331 5333 5335 5337
5349 5346 5335 5325 5332 5341 5384 5377 5372 5374 5372 5372 5368 5366 5363 5362 5360 5364 5360 5354 5352 5350 5346 5342 5337 5332 5328 5324 5321 5319 5316 5314 5313 5313 5312 5312 5313 5314 5314 5316 5316 5318 5319 5321
5333 5329 5326 5322 5323 5343 5359 5357 5361 5360 5372 5365 5358 5356 5352 5350 5353 5352 5347 5342 5339 5336 5332 5328 5323 5319 5316 5312 5308 5305 5303 5301 5300 5298 5298 5298 5298 5299 5300 5301 5302 5303 5304 5305
5334 5326 5320 5316 5319 5341 5345 5343 5349 5356 5353 5350 5346 5345 5342 5340 5339 5336 5331 5328 5324 5320 5317 5314 5310 5306 5302 5299 5296 5293 5290 5289 5286 5285 5284 5284 5284 5284 5285 5286 5287 5288 5289 5290
5332 5338 5336 5335 5344 5341 5332 5335 5336 5335 5335 5335 5333 5332 5329 5327 5325 5322 5317 5315 5311 5308 5304 5301 5297 5292 5288 5285 5283 5280 5279 5276 5273 5271 5270 5270 5270 5270 5271 5272 5273 5274 5275 5276
5316 5316 5319 5318 5324 5324 5321 5320 5320 5320 5321 5322 5320 5318 5316 5314 5312 5309 5306 5303 5298 5294 5290 5287 5282 5279 5276 5272 5270 5268 5265 5263 5260 5259 5258 5258 5258 5258 5258 5258 5259 5260 5261 5263
5311 5303 5304 5307 5312 5311 5311 5309 5310 5309 5308 5307 5306 5304 5302 5301 5299 5296 5292 5289 5285 5281 5277 5273 5270 5267 5264 5260 5257 5255 5252 5251 5249 5247 5246 5246 5246 5246 5246 5246 5247 5248 5250 5251
5299 5297 5303 5314 5309 5304 5309 5305 5300 5297 5295 5293 5291 5289 5287 5286 5284 5281 5279 5276 5271 5267 5263 5259 5256 5253 5251 5248 5246 5243 5241 5239 5238 5237 5236 5235 5234 5234 5234 5235 5236 5237 5238 5240